Location: York
(31.8935°S, 116.7682°E)
Time: 10:37:18
(UTC+08:00)

deb Explorer IX - Pass Details

Date: 25 September 2022
Orbit: 533 x 1057 km, 38.8° (Epoch: 01 December)

Event Time Altitude Azimuth Distance (km) Brightness Sun altitude
Rises 01:26:03 0° 246° (WSW) 2,746 - -52.2°
Reaches altitude 10° 01:28:28 10° 238° (WSW) 1,818 - -51.9°
Maximum altitude 01:32:19 38° 168° (SSE) 825 - -51.4°
Drops below altitude 10° 01:36:10 10° 98° (E) 1,811 - -50.9°
Sets 01:38:34 0° 89° (E) 2,734 - -50.6°
